Location: Middelsbur
(53.6609°N, 7.5020°E)
Time: 23:53:31
(UTC+00:00)

Cosmos 2237 Rocket - Pass Details

Date: 06 July 2020
Orbit: 835 x 850 km, 71.0° (Epoch: 14 August)

Event Time Altitude Azimuth Distance (km) Brightness Sun altitude
Rises 23:41:28 0° 240° (WSW) 3,409 5.0 -13.8°
Reaches altitude 10° 23:44:05 10° 248° (WSW) 2,477 4.4 -13.8°
Maximum altitude 23:49:22 38° 316° (NW) 1,282 3.5 -13.7°
Drops below altitude 10° 23:54:41 10° 25° (NNE) 2,489 5.8 -13.7°
Sets 23:57:20 0° 33° (NNE) 3,427 6.5 -13.6°
